Location: Newark
(55.7167°N, 12.5667°E)
Time: 14:57:35
(UTC+00:00)

N. Korean satellite - Pass Details

Date: 17 December 2019
Orbit: 454 x 508 km, 97.2° (Epoch: 20 January)

Event Time Altitude Azimuth Distance (km) Brightness Sun altitude
Rises 05:06:00 0° 15° (NNE) 2,541 10.2 -19.1°
Reaches altitude 10° 05:08:06 10° 19° (NNE) 1,648 9.3 -18.8°
Maximum altitude 05:11:37 66° 102° (ESE) 516 6.8 -18.3°
Drops below altitude 10° 05:15:03 10° 185° (S) 1,609 9.3 -17.8°
Sets 05:17:05 0° 189° (S) 2,473 10.3 -17.5°
